Regional Weather Roundup
Issued by NWS Green Bay, WI

Home | Current Version | Previous Version | Graphics & Text | Print | Product List | Glossary Off
Versions: 1 2 3 4 5 6 7 8 9 10 11 12 13 14 15 16 17 18 19 20 21 22 23 24 25 26 27 28 29 30 31 32 33 34 35 36 37 38 39 40 41 42 43 44 45 46 47 48 49 50

000
ASUS43 KGRB 180310
RWRGRB

NORTH-CENTRAL AND NORTHEAST WISCONSIN REGIONAL WEATHER ROUNDUP
NATIONAL WEATHER SERVICE GREEN BAY WI
1000 PM CDT WED SEP 17 2014

WIZ005-009-010>012-018-019-180400-
NORTH CENTRAL WISCONSIN

CITY           SKY/WX    TMP DP  RH WIND       PRES   REMARKS
IRONWOOD       CLOUDY    43  43 100 NE5       30.10R
MANITOWISH WTR CLOUDY    44  42  95 NE9       30.09R
ARBOR VITAE    MOCLDY    49  45  85 NE6       30.08R
EAGLE RIVER    CLOUDY    45  39  82 E7        30.09R
LAND O LAKES   CLOUDY    43  41  93 NE7       30.10S
RHINELANDER    CLOUDY    49  45  86 NE7       30.08R
PHILLIPS       PTCLDY    49  46  88 N7        30.07R
ANTIGO         CLEAR     51  49  93 E6        30.06R
TOMAHAWK       MOCLDY    51  46  84 N6        30.07R
MERRILL        CLOUDY    54  50  87 E5        30.05R
$$

WIZ013-073-180400-
NORTHEAST WISCONSIN

CITY           SKY/WX    TMP DP  RH WIND       PRES   REMARKS
IRON MOUNTAIN  CLOUDY    45  39  79 N10       30.09R
MARINETTE      CLOUDY    48  39  71 NE9       30.07R
OCONTO         CLEAR     49  45  87 N6        30.07R
$$

WIZ017-030-035>037-045-180400-
CENTRAL WISCONSIN

CITY           SKY/WX    TMP DP  RH WIND       PRES   REMARKS
MEDFORD        CLEAR     52  48  87 NE6       30.04R
WAUSAU         PTCLDY    57  51  80 NE6       30.03R
MOSINEE        MOCLDY    57  54  88 N8        30.03R
MARSHFIELD     CLEAR     52  50  93 CALM      30.01R
WISC RAPIDS    CLEAR     52  50  93 CALM      30.03R
STEVENS POINT  CLEAR     50  48  93 CALM      30.02R
WAUPACA        CLEAR     54  52  93 CALM      30.01S
SHAWANO        CLOUDY    54  47  75 NE10      30.06R
CLINTONVILLE   CLOUDY    54  46  76 NE14      30.05R
$$

WIZ038-039-048-051-180400-
FOX VALLEY

CITY           SKY/WX    TMP DP  RH WIND       PRES   REMARKS
NWS GREEN BAY  MOCLDY    53  48  83 NE21G30   30.05R
APPLETON       MOCLDY    57  50  77 NE12G20   30.03R
OSHKOSH        CLEAR     57  49  74 CALM      30.00R
FOND DU LAC    CLEAR     52  49  89 CALM      30.01R
$$

WIZ022-050-052-180400-
EAST CENTRAL WISCONSIN

CITY           SKY/WX    TMP DP  RH WIND       PRES   REMARKS
STURGEON BAY   MOCLDY    50  43  76 NE14      30.07R
MANITOWOC      MOCLDY    56  52  86 N8        30.02R
SHEBOYGAN      CLEAR     51  48  89 SW3       30.01R
$$

LMZ563-521-522-541>543-180400-
LAKESHORE

STATION/POSITION TIME  TEMP    WIND        PRES    VSBY  WAVE
                       AIR SEA DIR/SP/G                  HT/PER
                 (UTC) (F)     (DEG/KT/KT) (MB)    (MI)  (FT/S)
SHEBOYGAN LKSHOR 0300   57 51  230/  6/  7 1016.3R
KEWAUNEE LKSHORE 0300   54      20/ 12/ 24 1015.8R
NORTHPORT PIER   0300   50     360/ 16/ 20 1018.6R
N MID LAKE BUOY  0300   50 58   10/ 21/ 25 1017.9R         4/ 4
S GREEN BAY BUOY 0300   53     VRB 23/ 29  1018.8R
CHAMBERS ISLAND  0300   49      10/ 19/ 25 1018.6R
MENOMINEE LKSHOR 0300   50      20/ 17/ 21 1018.8R
$$



USA.gov is the U.S. government's official web portal to all federal, state and local government web resources and services.